Simultaneous Nadir Overpasses (SNOs) Predictions

Prediction of SNOs between GOES-14 and NOAA-20 Satellite Orbit:

Table of predicted SNOs for the next 14.0 days since TLE Epoch: 9/25/2020
Index Date Time (GOES-14) GOES-14 Lat,Lon NOAA-20 Lat,Lon Distance(km) Time Diff (sec)
1 09/26/2020 20:26:18 -0.30,-104.42 -0.58,-105.67 142.94 80
2 09/27/2020 20:10:13 -0.31,-104.42 0.43,-101.14 374.46 80
3 09/29/2020 08:31:59 0.28,-104.40 0.75,-106.40 228.64 80
4 09/30/2020 08:10:34 0.30,-104.39 -0.26,-101.87 287.06 80
5 10/01/2020 20:32:29 -0.27,-104.39 -0.92,-107.17 317.05 80
6 10/02/2020 20:16:23 -0.28,-104.40 0.09,-102.64 200.87 80
7 10/04/2020 08:38:11 0.26,-104.42 1.04,-107.91 398.34 80
8 10/05/2020 08:16:45 0.27,-104.40 0.03,-103.38 117.45 80
9 10/06/2020 20:38:41 -0.25,-104.37 -1.20,-108.68 490.45 80
10 10/07/2020 20:22:35 -0.26,-104.38 -0.19,-104.15 27.20 80
